Погода в Тамбове

Погода в Тамбове : погода сейчас, прогноз погоды и архив. Всё, что Вы хотите узнать о погоде в Тамбове!

Поиск расширенной информации на нашем сайте:

Другие новости

Новости СМИ2

Главная страница сайта

Новости сайта

03.07.2017

Напоминаем, что на нашем специализированном сайте Метеоцентр.Азия вы можете получить высокодетализированные автоматические прогнозы погоды по пунктам России, СНГ и мира в авиационном формате (включающие направление и скорость ветра, видимость, явления погоды, количество и форму облачности, нижнюю и верхнюю границу облачности).


Погода в Тамбове - сегодня

Время (UTC), дата Ветер
(°,м/с) 
Видим.   Явления Облачность Т
(°С)
Тd
(°С)
f(%) Тe
(°С)
Pmin
(гПа)
dP
(гПа)
Po
(мм)
O2
(г/м3)
Тmin Tmax R s Состояние
почвы
12 08.12.17 310 (СЗ) 10 км  {снег}  10/10 540 м 
[Sc]
-5.2 -8.9 75 -5  1017.1  1.1  750  309           
15 08.12.17 270 (З) 10 км    10/10 480 м 
[Sc]
-6.2 -9.7 76 -6  1018.2  751  311    -4.8  0.2     
18 08.12.17 160 (Ю) 10 км    10/10 450 м 
[Sc]
-6.4 -9.2 80 -6  1018.7  0.5  751  311           
21 08.12.17 150 (ЮВ) 10 км    10/0 средняя 
[Ac und]
-6.5 -8.7 84 -8  1019.2  0.5  752  311           
00 09.12.17 150 (ЮВ) 10 км    10/10 1500 м 
[Sc]
-5.9 -8.5 82 -9  1018.7  -0.5  751  310           
03 09.12.17 160 (Ю) 4000 м  слаб. снег  10/10 540 м 
[Ns]
-5.3 -7.3 86 -8  1018.1  -0.5  751  309  -6.8    0.2  равномерный
сухой снег
100% 
06 09.12.17 160 (Ю) 10 км  {снег}  10/10 210 м 
[St]
-4.6 -6.2 89 -7  1018.2  0.1  751  308           
09 09.12.17 150 (ЮВ) 10 км    10/10 240 м 
[St]
-3.4 -5.1 88 -6  1018.2  751  307           
12 09.12.17 170 (Ю) 10 км    10/10 210 м 
[St]
-1.7 -3.1 90 -4  1017.8  -0.3  751  305           
15 09.12.17 160 (Ю) 4000 м  дымка  10/10 120 м 
[St]
-1.5 -2.3 94 -3  1018.1  0.3  751  304    -1.4  0.0     
18 09.12.17 140 (ЮВ) 10 км    10/10 180 м 
[St]
-1.4 -2.5 92 -1  1018  751  304           
21 09.12.17 160 (Ю) 10 км    10/10 150 м 
[St]
-1.5 -2.6 92 -2  1018.2  0.2  751  305           
00 10.12.17 130 (ЮВ) 10 км    10/10 210 м 
[St]
-1.6 -3 90 -4  1017.7  -0.6  751  305           
03 10.12.17 120 (ЮВ) 10 км    10/10 120 м 
[St]
-1.2 -2.5 91 -2  1017.1  -0.5  750  304  -1.7      равномерный
мокрый или
старый снег
100% 
06 10.12.17 120 (ЮВ) 4000 м  дымка  10/10 100 м 
[St]
-1 -1.7 95 -2  1016.7  -0.4  750  303           
09 10.12.17 120 (ЮВ) 96  0050 м  дымка  10/10 100 м 
[St]
-0.2 -0.8 96 -13  1015.6  -1.1  749  302           
12 10.12.17 130 (ЮВ) 2000 м  дымка  10/10 60 м 
[St]
+0.4 -0.2 96 -1  1014.7  -0.8  749  301           
15 10.12.17 140 (ЮВ) 4000 м  дымка  10/10 60 м 
[St]
+0.9 +0.4 96 -1  1014.7  749  301    +0.9       
18 10.12.17 140 (ЮВ) 10 км    9/5 1000 м средняя 
[Sc|Ac trans]
+2.2 +1.2 93 1013.6  -1  748  299           
21 10.12.17 130 (ЮВ) 10 км    9/5 1000 м средняя 
[Sc|Ac trans]
+3.3 +0.4 81 +1  1013.1  -0.4  747  297           
00 11.12.17 120 (ЮВ) 5{11}  10 км    9/5 1000 м средняя 
[Sc|Ac trans]
+2.8 +0.1 82 1012.1  -1  747  298           
03 11.12.17 140 (ЮВ) 10-15{16}  10 км    10/10 270 м 
[St]
+2 +0.1 87 -2  1011.7  -0.4  746  299  +0.9      мокрый или
старый снег
50-90% 
06 11.12.17 140 (ЮВ) 7-12{16}  10 км  слаб. дождь  10/10 270 м 
[Frnb|Ns]
+1.8 +0.5 91 -2  1011.4  -0.4  746  299  +1.7         
09 11.12.17 160 (Ю) 7-11{13}  10 км  {дождь}  10/10 1000 м 
[Sc]
+1.9 -0.6 83 -2  1012.4  747  299           
12 11.12.17 170 (Ю) 8-13{13}  4000 м  слаб. ливневой снег{дождь}  10/10 360 м кучево-дожд. 
[Cb calv]
+0.8 -1.2 86 -3  1012.4  747  300           
Время (UTC), дата Ветер
(°,м/с) 
Видим.   Явления Облачность Т
(°С)
Тd
(°С)
f(%) Тe
(°С)
Pmin
(гПа)
dP
(гПа)
Po
(мм)
O2
(г/м3)
Тmin Tmax R s Состояние
почвы

Для получения пояснительной информации подведите курсор к названию столбца.

ПОГОДА в Тамбове - архив

Всё, что Вы хотите узнать о погоде в Тамбове - удобно и подробно!

Выберите нужную дату (начиная с 1 января 2015* года) и нажмите кнопку "Найти".
Будут отображены архивные сводки погоды по пункту Тамбов, начиная с указанной даты.


Отображать данные в формате CSV (для использования в таблицах Excel)


Внимание! Наш архив погоды предназначен исключительно для личного некоммерческого использования в познавательных целях. Если Вам необходимы официальные справки о состоянии погоды (для производственных, юридических, коммерческих и т.п. целей), обращайтесь в органы Росгидромета.

*Примечание: данная дата относится к архиву по метеостанциям СССР (Россия, СНГ, Балтия).
Архив по метеостанциям Зарубежной Европы и Азии (кроме Китая) хранится 10 дней, по другим регионам земного шара (Китай, Африка, Америка, Австралия, Океания) - 1 день.

Тамбов - район местоположения метеостанции


Название, широта, долгота, высота метеостанции:
Тамбов 52.8°ш. 41.3°д. 128 м над ур. моря [Российская Федерация]

Дополнительная информация

В oтличие oт бoльшинства пoгoдных сайтoв мы публикуем пoдрoбную метеoинфoрмацию в детальнoм прoфессиoнальнoм фoрмате.

Характеристики температуры и влажнoсти вoздуха измеряются на высoте 2 м в тени вдали oт зданий и деревьев.
Скoрoсть ветра измеряется на высoте 10 м (на урoвне рoста челoвека скoрoсть ветра ниже в 1.5-2 раза). Если метеoстанция нахoдится в гoрoде или в лесу, тo скoрoсть ветра занижена на 2-4 м/с пo сравнению с oткрытым местoм. Скoрoсть ветра над акватoриями крупных рек и oзёр, а также на вершинах хoлмoв на 2-5 м/с выше, чем в oбычных услoвиях.
Атмoсфернoе давление в разных тoчках местнoсти мoжет значительнo oтличаться oт давления на метеoстанции, в зависимoсти oт услoвий рельефа (при пoдъёме на 10 м давление пoнижается примернo на 1 мм рт.ст.).